Temperature
10 10 10 11 11 11 11 11 12 12 12 12 12 12 12 13 13 13 13 13 13 14 13 13 13 14 14 14 14 14 13 13 13 13 13 13 13 13 14 14 14 14 14
9 10 10 11 11 11 11 11 12 12 12 12 12 12 12 12 13 13 13 13 13 13 13 13 13 13 13 13 13 13 13 13 13 13 12 12 13 13 13 13 13 13 13
8 9 9 10 10 11 11 11 11 11 11 11 12 12 11 12 12 12 12 12 13 13 13 13 13 13 13 13 13 13 13 13 13 13 12 12 12 12 13 13 13 13 13
8 9 9 9 10 10 10 10 11 11 11 11 11 11 11 12 12 12 12 12 12 12 12 12 13 13 13 13 13 13 13 13 12 12 12 13 12 12 12 12 12 12 12
8 8 8 9 9 10 10 10 10 10 10 11 11 11 11 11 11 12 12 12 12 12 12 12 12 12 12 13 13 12 12 12 12 12 12 12 12 12 12 11 12 12 12
7 8 8 8 9 9 9 9 10 10 10 10 10 10 10 11 11 11 11 11 11 11 12 12 12 12 12 12 12 12 12 12 12 12 12 12 12 12 12 12 12 11 11
7 7 7 8 8 8 9 9 9 9 10 10 10 10 10 10 11 11 11 11 11 11 11 11 11 12 12 12 12 12 12 12 12 11 11 11 11 12 12 11 11 11 11
6 6 7 7 7 8 8 9 9 9 9 9 9 9 10 10 10 10 10 11 11 11 11 11 11 11 11 11 11 11 11 11 11 11 11 11 11 11 11 11 11 10 10
6 6 6 6 7 7 7 8 8 8 9 9 9 9 9 9 10 10 10 10 10 10 10 10 10 11 11 11 11 11 11 11 11 11 10 10 10 10 10 10 10 10 9
5 5 6 6 6 6 7 7 8 8 8 8 9 9 9 9 9 9 10 10 10 10 10 10 10 10 10 10 10 10 10 10 10 10 10 10 10 10 10 10 10 10 9
5 5 5 6 6 6 6 7 7 7 8 8 8 8 8 9 9 9 9 9 9 9 9 9 9 9 9 9 9 9 9 9 9 9 9 9 9 9 9 9 9 9 9
5 5 5 5 5 5 6 6 7 7 7 7 8 8 8 8 8 8 8 8 8 9 9 9 9 9 9 9 9 9 9 9 9 9 9 9 9 9 9 8 8 8 8
4 4 5 5 5 5 5 5 6 6 6 7 7 7 7 7 7 8 8 8 8 8 8 8 8 8 8 8 8 8 8 8 8 8 8 8 8 8 8 8 8 8 8
4 4 4 4 4 4 5 5 5 5 6 6 6 7 7 7 7 7 7 7 7 7 7 7 7 7 7 7 7 7 8 8 8 7 7 7 7 7 7 7 7 7 7
3 3 3 3 4 4 4 4 5 5 5 5 6 6 6 6 6 6 7 7 7 7 7 7 7 7 7 7 7 7 7 7 7 7 7 7 7 7 7 7 6 6 6
3 3 3 3 3 3 3 4 4 4 4 5 5 5 5 6 6 6 6 6 6 6 6 6 6 6 6 6 6 6 6 6 6 6 6 6 6 6 6 6 6 6 6
3 3 3 3 3 3 3 3 4 4 4 4 4 4 5 5 5 5 5 5 5 5 5 5 5 5 5 5 5 5 5 6 6 6 6 6 6 5 5 5 5 5 5
3 3 3 3 3 3 3 3 3 4 4 4 4 4 4 4 4 4 5 5 4 4 5 5 5 5 5 4 4 5 5 5 5 5 5 5 5 5 5 5 4 4 5
3 3 3 3 3 3 3 3 3 3 3 3 3 3 3 3 4 4 4 4 4 4 4 4 4 4 4 4 4 4 4 4 4 4 4 4 4 4 4 4 4 4 4
3 3 2 3 3 2 2 2 2 2 2 2 2 2 2 3 3 3 3 3 3 3 3 3 3 3 3 3 3 3 3 3 3 3 3 3 3 3 3 3 3 3 3
3 2 2 2 2 2 2 2 2 2 2 2 2 2 2 2 2 2 2 2 2 2 2 2 2 2 2 2 2 2 2 2 2 3 3 3 2 3 3 3 3 3 3
2 2 2 2 2 1 1 1 1 1 1 1 1 1 1 1 1 1 2 1 1 1 1 1 2 2 2 2 1 1 2 2 2 2 2 2 2 2 2 2 2 2 2
2 2 1 1 1 1 1 1 0 0 0 0 0 0 1 1 1 1 1 1 1 0 0 0 1 1 1 1 1 1 1 1 1 1 1 1 1 1 1 1 1 1 1
1 1 1 1 1 1 0 0 -0 -0 -0 -0 -0 -0 -0 -0 -0 -0 -0 -0 -0 -0 -0 -0 -0 -0 -0 -0 0 0 0 0 0 0 0 0 0 0 0 0 0 0 0
1 1 1 0 0 0 -0 -0 -0 -0 -0 -1 -1 -1 -1 -1 -1 -1 -1 -1 -1 -1 -1 -1 -1 -1 -1 -1 -1 -1 -1 -1 -1 -1 -1 -0 -0 -0 -0 -0 -0 -0 -0
1 0 0 -0 -0 -1 -1 -1 -1 -1 -1 -1 -1 -1 -1 -1 -1 -1 -1 -1 -1 -1 -1 -1 -1 -1 -1 -1 -1 -1 -1 -1 -1 -1 -1 -1 -1 -1 -1 -1 -1 -1 -1
Wind_Speed
5 3 3 4 3 3 5 7 7 6 6 6 6 6 6 6 6 5 8 11 12 12 10 9 10 10 9 10 9 5 6 4 3 2 1 2 2 4 5 4 5 6 9
3 3 3 1 2 3 5 6 6 5 6 7 6 5 5 5 5 5 6 10 11 11 10 10 10 10 9 9 9 6 5 4 5 4 3 1 2 3 4 4 5 5 5
2 3 2 0 1 1 3 4 5 5 5 5 5 4 3 3 3 5 6 8 9 10 9 10 10 10 9 9 9 9 8 6 5 5 5 4 4 2 2 3 4 5 4
3 1 0 2 1 0 2 3 5 5 5 4 5 6 5 5 4 4 5 7 8 8 8 9 10 10 9 9 10 9 7 8 7 4 4 3 3 3 2 2 3 4 5
3 3 2 3 3 2 2 2 3 3 4 4 5 5 4 3 3 3 4 6 7 7 7 7 8 9 8 9 9 8 8 7 7 5 3 3 3 3 3 4 3 3 4
8 7 5 4 4 4 3 2 2 2 3 4 4 5 5 4 4 3 3 5 5 5 7 7 7 7 7 8 9 9 9 8 7 5 4 4 4 4 4 4 4 4 4
10 9 8 7 6 6 5 4 3 3 2 3 3 3 4 5 4 3 4 5 4 3 5 5 6 6 7 8 8 8 9 9 9 8 6 5 5 4 3 4 4 4 3
10 11 10 8 7 7 6 6 5 4 4 3 2 2 2 3 2 2 3 4 3 3 4 5 5 6 7 8 8 7 8 8 8 8 7 6 5 4 4 4 4 4 4
10 10 10 10 9 8 7 6 6 6 5 4 3 3 2 2 2 2 2 3 2 2 4 4 4 5 5 7 7 7 7 8 8 8 8 6 5 5 5 5 5 5 6
9 10 10 10 9 8 8 8 9 8 6 6 5 4 3 3 2 2 2 1 2 2 3 3 3 3 3 4 6 6 7 8 8 7 7 7 5 5 5 5 5 5 5
8 9 10 10 10 10 10 10 9 9 8 7 6 6 5 4 4 3 1 1 1 1 2 3 3 3 3 4 4 5 6 7 7 6 8 8 6 5 5 4 5 5 4
8 9 9 10 11 11 11 10 10 9 8 7 6 6 5 5 4 3 1 1 0 1 2 3 3 3 4 4 4 5 5 7 7 7 7 7 5 6 5 5 6 6 5
8 9 9 10 10 10 10 10 9 9 8 7 7 6 6 6 4 3 2 1 1 1 1 1 2 3 4 4 4 4 5 5 6 6 7 7 6 7 6 6 6 5 5
7 8 9 9 9 9 9 9 9 8 8 7 7 6 5 5 4 4 3 3 2 1 1 1 2 2 3 3 3 4 4 4 5 5 6 7 8 8 8 7 7 5 5
7 7 7 7 8 8 8 8 8 8 7 7 7 6 5 5 5 5 5 4 3 3 2 1 2 2 2 3 4 4 4 4 5 5 5 6 8 9 9 7 7 7 5
4 5 6 7 7 7 7 7 8 7 7 7 7 6 6 6 6 5 5 5 5 4 3 2 2 3 3 4 4 4 4 4 4 5 5 4 5 7 8 10 9 9 8
2 4 4 4 5 5 6 6 7 7 7 7 6 6 6 7 6 6 6 5 5 4 4 3 3 3 3 5 4 4 3 3 4 4 4 3 4 4 4 5 6 7 9
1 2 3 4 4 5 5 6 6 6 7 7 7 7 6 6 6 6 5 5 5 4 4 4 4 4 4 5 5 6 3 3 3 3 4 4 4 4 4 3 2 3 4
1 1 2 2 3 4 5 5 6 7 7 7 8 7 7 6 6 6 5 5 4 4 4 4 4 4 4 6 6 6 2 2 2 2 3 3 3 5 5 4 4 3 2
0 1 1 2 3 4 4 5 6 6 7 7 7 7 6 6 6 5 5 5 4 4 4 4 4 4 4 5 6 6 2 2 2 2 2 3 4 4 5 4 5 5 3
0 1 1 2 2 3 4 5 5 6 6 6 6 6 6 5 5 5 4 4 4 4 4 4 4 3 4 5 6 6 2 1 2 2 2 2 3 4 4 3 4 6 5
1 1 1 2 3 3 3 4 5 6 6 6 6 6 6 5 5 5 4 4 3 4 4 3 4 3 4 4 5 6 5 3 2 2 2 2 3 3 3 2 3 5 5
0 1 1 2 3 3 2 3 5 6 6 6 6 6 6 5 5 4 4 4 3 3 3 3 3 4 3 4 6 6 5 5 3 2 2 2 2 1 1 2 3 3 3
1 1 1 2 3 3 3 3 4 5 5 6 6 5 5 5 5 4 3 3 3 3 3 3 4 4 3 3 3 2 3 4 3 2 2 2 1 1 0 1 1 1 2
1 0 1 2 4 4 4 4 4 5 5 6 6 5 5 4 4 4 4 4 4 4 4 4 3 4 4 4 5 4 2 2 2 3 2 1 1 1 1 1 1 1 1
1 1 2 3 3 3 4 4 4 4 5 5 5 4 4 4 4 5 5 6 5 7 7 6 5 5 6 7 6 5 5 4 4 2 0 1 1 1 1 1 0 1 1
Wind_Direction
265 269 255 227 199 193 187 176 171 184 181 176 176 182 187 189 185 192 199 191 180 178 179 180 179 179 184 188 182 180 181 188 169 148 210 293 252 231 225 210 204 205 205
320 306 282 208 164 196 187 170 172 182 189 181 173 176 178 188 182 185 197 193 181 179 183 183 183 183 183 185 186 176 180 188 174 164 161 235 289 262 234 213 208 213 201
329 309 297 114 130 188 177 176 181 184 183 171 159 167 169 170 175 182 192 194 181 178 183 186 184 186 184 189 191 186 186 193 196 184 176 180 218 248 260 226 216 209 212
348 343 61 77 87 125 139 151 163 166 168 166 164 173 186 180 188 186 190 191 182 180 182 185 187 189 189 191 193 191 192 187 196 201 208 203 182 191 234 251 226 216 218
14 35 52 68 69 78 120 133 141 148 157 158 166 177 184 167 158 160 181 190 182 182 183 182 186 191 193 193 193 194 194 195 199 200 196 204 213 210 210 240 235 233 231
24 29 31 47 50 53 73 89 115 123 143 153 160 171 168 160 155 166 196 191 185 183 186 184 186 192 196 197 196 196 198 201 203 208 204 195 195 204 206 231 237 240 240
25 25 31 37 38 40 44 55 84 90 107 129 143 156 166 160 164 174 184 180 179 187 192 191 193 200 203 199 198 199 202 200 200 204 214 215 218 204 200 211 233 248 249
24 27 30 34 37 40 46 56 71 77 81 90 109 131 150 139 158 175 172 167 177 188 193 194 197 205 206 202 200 205 209 206 207 212 213 219 222 210 205 203 210 240 247
24 26 28 32 36 39 39 49 62 68 66 68 77 78 83 108 137 150 158 166 169 185 189 201 202 206 204 202 201 209 212 210 213 214 215 222 224 216 215 207 201 210 235
27 27 27 28 32 35 34 40 50 54 54 54 56 60 62 67 79 100 119 157 175 185 189 208 206 206 208 207 205 212 214 213 219 218 217 223 225 220 214 213 219 216 222
28 28 30 28 32 34 35 37 38 40 43 44 50 51 45 49 52 62 85 135 181 199 196 208 206 208 215 213 211 218 213 215 223 223 219 225 218 220 220 214 216 219 214
30 30 32 32 32 31 29 32 31 31 29 32 40 40 35 38 41 48 51 52 226 216 204 203 206 214 222 221 218 227 224 220 221 223 222 227 221 221 220 220 223 224 215
30 30 30 30 29 27 25 26 25 24 22 26 32 33 27 25 19 25 23 22 341 282 222 200 221 229 231 227 228 230 234 233 230 227 226 227 218 226 224 221 224 226 220
31 27 25 22 22 21 20 20 19 18 21 27 30 30 19 12 8 12 14 8 358 333 272 245 250 248 248 245 243 244 246 246 244 238 232 229 224 227 224 223 221 216 212
31 27 21 16 16 16 15 14 14 12 17 27 30 25 18 15 17 18 15 11 6 354 332 299 294 289 268 257 260 257 255 249 249 248 244 241 235 232 229 224 215 206 210
25 17 17 13 10 9 6 6 6 5 11 22 20 13 13 16 18 15 13 14 9 4 358 346 317 299 293 284 276 269 257 250 249 254 255 248 240 238 236 228 220 208 208
17 7 6 2 357 355 360 1 356 358 8 12 11 9 8 11 10 9 11 8 4 4 355 347 336 324 311 313 310 295 268 259 257 252 250 257 247 242 230 229 223 221 219
359 348 347 348 346 354 360 357 359 4 6 5 3 1 5 5 359 360 3 358 352 353 351 343 339 337 332 336 331 326 293 265 261 258 249 242 241 230 211 199 207 229 231
272 305 318 334 348 356 356 2 4 3 6 3 357 351 352 355 353 351 347 340 339 342 344 340 338 334 331 339 342 342 313 289 281 272 256 241 241 233 215 195 197 215 226
34 343 347 7 2 349 356 8 2 1 356 348 342 339 341 343 339 336 335 333 334 331 332 331 328 321 319 328 337 340 321 307 304 301 276 247 242 236 229 210 195 200 205
345 26 27 3 335 339 358 359 354 347 334 333 334 337 335 333 329 332 334 331 331 333 330 328 327 320 313 317 326 330 323 280 284 287 287 271 247 245 236 233 214 204 187
27 25 9 334 330 342 354 345 334 327 332 334 335 335 333 331 332 331 328 325 325 326 322 326 330 330 323 320 321 328 327 319 283 274 280 274 259 254 235 228 206 188 173
315 339 330 324 330 334 340 329 320 328 334 334 330 327 328 326 323 321 319 320 318 309 307 311 315 321 325 326 332 335 336 335 328 295 289 283 270 275 241 202 182 159 152
241 309 331 318 315 319 321 314 320 328 330 325 321 321 323 324 323 321 315 310 309 305 303 304 305 310 315 315 317 323 336 344 340 317 294 289 293 331 276 194 148 124 160
254 273 275 286 298 311 318 324 328 331 327 321 318 320 320 316 316 317 311 304 291 290 297 291 291 295 296 298 311 319 318 318 305 326 338 2 24 36 30 56 93 128 146
251 285 283 287 293 301 306 315 322 325 321 320 318 316 318 318 321 322 324 327 319 321 322 314 308 304 303 306 313 319 319 318 310 322 283 273 268 227 207 204 224 185 178
Height
1432 1433 1434 1436 1438 1440 1442 1445 1449 1453 1456 1459 1462 1465 1468 1471 1475 1478 1482 1486 1489 1493 1496 1500 1504 1507 1511 1514 1518 1521 1524 1527 1530 1532 1533 1534 1535 1536 1536 1537 1538 1538 1539
1430 1430 1431 1432 1435 1438 1440 1442 1445 1448 1452 1454 1457 1461 1464 1467 1470 1474 1478 1481 1484 1488 1492 1495 1499 1502 1506 1510 1513 1516 1519 1522 1525 1527 1528 1529 1531 1531 1532 1532 1533 1534 1534
1429 1430 1430 1431 1433 1434 1436 1438 1441 1444 1447 1450 1454 1457 1460 1463 1466 1470 1472 1476 1479 1483 1487 1491 1494 1498 1501 1504 1508 1511 1514 1516 1519 1522 1523 1524 1524 1525 1526 1527 1528 1529 1529
1429 1430 1430 1430 1431 1433 1435 1437 1438 1441 1444 1447 1449 1452 1454 1457 1460 1464 1468 1472 1475 1479 1482 1486 1489 1492 1496 1499 1502 1506 1509 1511 1513 1516 1518 1519 1520 1520 1520 1521 1523 1523 1524
1430 1429 1429 1429 1431 1432 1434 1435 1437 1438 1441 1443 1446 1448 1451 1454 1457 1460 1464 1467 1470 1474 1478 1481 1484 1487 1490 1494 1497 1500 1503 1505 1507 1509 1511 1513 1514 1515 1515 1514 1516 1517 1517
1431 1430 1429 1430 1430 1431 1431 1431 1433 1436 1438 1440 1443 1446 1448 1451 1454 1456 1459 1463 1466 1470 1473 1476 1479 1482 1485 1488 1491 1494 1496 1499 1501 1503 1505 1506 1507 1508 1509 1509 1509 1510 1511
1433 1432 1431 1430 1430 1429 1429 1430 1432 1434 1436 1438 1441 1443 1446 1449 1451 1453 1455 1458 1462 1465 1468 1471 1474 1477 1480 1482 1485 1488 1490 1492 1494 1496 1498 1500 1501 1503 1504 1504 1504 1504 1504
1437 1434 1433 1432 1431 1431 1431 1431 1433 1434 1435 1437 1439 1442 1444 1446 1449 1451 1452 1455 1458 1461 1464 1467 1469 1472 1474 1476 1479 1481 1484 1486 1488 1489 1492 1493 1494 1496 1497 1498 1499 1498 1498
1441 1438 1436 1434 1433 1432 1432 1432 1433 1434 1435 1437 1438 1440 1442 1444 1447 1448 1450 1452 1455 1457 1460 1462 1464 1466 1468 1470 1472 1474 1477 1479 1481 1483 1485 1486 1487 1489 1490 1491 1492 1493 1492
1445 1442 1440 1438 1436 1435 1435 1434 1433 1434 1435 1437 1438 1440 1441 1443 1444 1446 1447 1450 1452 1454 1456 1458 1459 1461 1463 1465 1467 1468 1470 1472 1474 1476 1477 1479 1480 1481 1482 1484 1485 1486 1486
1448 1446 1443 1441 1439 1438 1437 1436 1436 1436 1437 1437 1439 1440 1441 1442 1443 1444 1446 1448 1450 1451 1452 1454 1455 1457 1458 1459 1461 1463 1464 1465 1467 1468 1470 1471 1473 1473 1475 1476 1477 1478 1479
1452 1450 1447 1445 1442 1441 1440 1439 1439 1438 1438 1439 1439 1440 1441 1441 1442 1443 1445 1446 1447 1448 1449 1450 1452 1453 1454 1455 1456 1457 1458 1459 1460 1461 1463 1464 1465 1466 1467 1469 1469 1470 1471
1454 1452 1450 1448 1446 1444 1443 1442 1441 1440 1440 1440 1440 1440 1441 1441 1441 1442 1442 1443 1444 1445 1446 1447 1448 1449 1450 1451 1451 1452 1453 1453 1454 1455 1456 1457 1458 1459 1460 1461 1462 1463 1464
1457 1455 1453 1451 1450 1448 1447 1445 1444 1443 1442 1442 1441 1441 1441 1440 1440 1440 1440 1441 1441 1441 1442 1443 1444 1445 1446 1446 1447 1447 1447 1448 1448 1449 1450 1451 1451 1452 1453 1453 1454 1455 1456
1461 1459 1457 1455 1453 1451 1449 1448 1446 1445 1444 1442 1441 1441 1440 1439 1439 1439 1438 1438 1439 1438 1439 1440 1440 1441 1441 1441 1441 1441 1441 1442 1442 1443 1444 1444 1445 1445 1446 1446 1447 1448 1449
1463 1461 1459 1457 1455 1453 1451 1449 1447 1446 1445 1443 1442 1441 1440 1439 1438 1437 1437 1436 1436 1436 1436 1436 1436 1436 1436 1437 1437 1436 1436 1436 1436 1437 1437 1437 1438 1438 1439 1439 1440 1441 1442
1464 1463 1461 1459 1457 1455 1453 1451 1449 1448 1446 1444 1443 1441 1440 1438 1437 1436 1436 1435 1434 1433 1433 1433 1433 1432 1432 1432 1432 1432 1431 1430 1431 1431 1431 1431 1432 1432 1432 1432 1433 1434 1435
1465 1463 1462 1460 1458 1456 1454 1453 1451 1449 1447 1445 1443 1441 1439 1438 1437 1436 1434 1433 1433 1432 1431 1430 1429 1428 1428 1428 1427 1427 1426 1426 1425 1425 1425 1426 1426 1426 1426 1426 1426 1427 1429
1464 1463 1462 1460 1458 1456 1455 1453 1451 1448 1447 1445 1443 1441 1439 1437 1436 1434 1433 1432 1431 1429 1428 1427 1426 1425 1424 1424 1423 1423 1421 1421 1421 1420 1420 1421 1421 1421 1421 1421 1421 1422 1423
1463 1462 1461 1459 1458 1456 1454 1452 1450 1448 1446 1444 1442 1440 1438 1436 1435 1433 1432 1430 1429 1427 1426 1424 1423 1422 1421 1420 1420 1419 1418 1417 1416 1416 1416 1416 1416 1416 1416 1416 1416 1417 1418
1462 1461 1460 1458 1457 1455 1453 1450 1448 1447 1445 1443 1441 1439 1437 1435 1434 1432 1430 1429 1427 1425 1423 1422 1421 1420 1418 1417 1417 1416 1415 1413 1413 1412 1412 1412 1412 1413 1413 1413 1413 1413 1415
1460 1459 1458 1457 1455 1454 1452 1450 1448 1446 1444 1442 1439 1437 1435 1433 1432 1430 1428 1426 1424 1422 1420 1419 1418 1417 1415 1414 1413 1412 1412 1411 1410 1409 1408 1408 1409 1409 1409 1409 1409 1410 1411
1459 1458 1457 1455 1454 1452 1450 1448 1446 1444 1442 1440 1437 1435 1433 1432 1430 1428 1426 1424 1422 1420 1418 1416 1414 1412 1412 1411 1411 1409 1408 1407 1407 1406 1406 1406 1406 1405 1405 1406 1406 1407 1407
1457 1456 1454 1453 1452 1450 1448 1447 1445 1443 1440 1438 1435 1433 1431 1429 1427 1425 1423 1421 1419 1417 1415 1413 1411 1409 1408 1408 1407 1406 1405 1404 1403 1403 1403 1403 1403 1402 1402 1403 1403 1404 1405
1454 1453 1452 1450 1449 1448 1446 1445 1443 1440 1438 1436 1434 1431 1429 1427 1424 1423 1421 1419 1417 1415 1413 1411 1409 1407 1406 1405 1405 1403 1402 1401 1400 1400 1399 1399 1399 1399 1400 1400 1401 1401 1402
1452 1451 1450 1449 1447 1446 1444 1442 1440 1438 1436 1433 1431 1429 1427 1424 1422 1419 1417 1416 1414 1412 1411 1409 1407 1405 1405 1403 1402 1401 1400 1399 1399 1398 1397 1397 1397 1397 1397 1398 1398 1399 1400